Location: ??????
(33.3472°N, 35.4764°E)
Time: 15:54:36
(UTC+00:00)

Cosmos 1825 - Pass Details

Date: 21 August 2019
Orbit: 503 x 510 km, 82.5° (Epoch: 23 October)

Event Time Altitude Azimuth Distance (km) Brightness Sun altitude
Rises 02:24:58 0° 345° (NNW) 2,623 5.9 -8.7°
Reaches altitude 10° 02:27:10 10° 337° (NNW) 1,734 4.9 -8.2°
Maximum altitude 02:30:44 40° 268° (W) 763 2.6 -7.5°
Drops below altitude 10° 02:34:17 10° 197° (SSW) 1,721 4.5 -6.8°
Sets 02:36:29 0° 190° (S) 2,602 5.5 -6.4°
